Saint Thomas, VI

8:18 PM AST on July 29, 2016 (GMT -0400)
King

Weather History for TIST - November, 2013

Change the Weather History Date:

Monday, November 4, 2013

  Actual Average Record
Temperature  
Mean Temperature 82 °F 82 °F  
Max Temperature 86 °F 88 °F 93 °F (1993)
Min Temperature 77 °F 76 °F 70 °F (1983)
Degree Days  
Heating Degree Days 0 0  
Month to date heating degree days 0 0  
Since 1 July heating degree days 0 0  
Cooling Degree Days 17 17  
Month to date cooling degree days 64 68  
Year to date cooling degree days 5123 5179  
Growing Degree Days 32 (Base 50)    
Moisture  
Dew Point 76 °F    
Average Humidity 86    
Maximum Humidity 97    
Minimum Humidity 74    
Precipitation  
Precipitation 0.42 in 0.20 in 3.21 in (1983)
Month to date precipitation 4.29 0.81  
Year to date precipitation 41.00 31.96  
Sea Level Pressure  
Sea Level Pressure 29.89 in    
Wind  
Wind Speed 7 mph (SE)    
Max Wind Speed 20 mph    
Max Gust Speed 25 mph    
Visibility 9 miles    
Events Rain    
T = Trace of Precipitation, MM = Missing Value Source: NWS Daily Summary

Daily Weather History Graph

Daily Weather History Graph

Search for Another Location

Airport or City:

Trip Planner

Search our weather history database for the weather conditions in past years. The results will help you decide how hot, cold, wet, or windy it might be!

Date:

Astronomy

Nov. 04, 2013 Rise Set
Actual Time 6:20 AM AST 5:45 PM AST
Civil Twilight 5:58 AM AST 6:08 PM AST
Nautical Twilight 5:32 AM AST 6:34 PM AST
Astronomical Twilight 5:06 AM AST 7:00 PM AST
Moon 7:19 AM AST (11/4) 6:56 PM AST (11/4)
Length of Visible Light 12h 10m
Length of Day
11h 24m
New Moon, 2% of the Moon is Illuminated
Nov 4
New Moon
Nov 10
First Quarter
Nov 17
Full
Nov 25
Last Quarter
Dec 2
New

Hourly Weather History & Observations

Time (AST) Temp. Heat Index Dew Point Humidity Pressure Visibility Wind Dir Wind Speed Gust Speed Precip Events Conditions
12:53 AM 81.0 °F 87.9 °F 77.0 °F 88% 29.91 in 10.0 mi South 9.2 mph - N/A   Partly Cloudy
1:53 AM 82.0 °F 88.6 °F 75.0 °F 79% 29.88 in 10.0 mi SSE 11.5 mph - N/A   Scattered Clouds
2:53 AM 81.0 °F 87.9 °F 77.0 °F 88% 29.86 in 10.0 mi SE 9.2 mph - N/A   Clear
3:53 AM 80.1 °F 85.8 °F 77.0 °F 90% 29.85 in 10.0 mi SE 6.9 mph - N/A   Clear
4:53 AM 80.1 °F 86.4 °F 78.1 °F 94% 29.86 in 10.0 mi SSE 6.9 mph - N/A   Clear
5:53 AM 78.1 °F - 75.9 °F 93% 29.87 in 10.0 mi East 4.6 mph - N/A   Partly Cloudy
6:32 AM 78.8 °F - 77.0 °F 94% 29.88 in 10.0 mi East 3.5 mph - N/A   Mostly Cloudy
6:53 AM 79.0 °F - 77.0 °F 94% 29.89 in 10.0 mi East 4.6 mph - N/A   Mostly Cloudy
7:04 AM 78.8 °F - 77.0 °F 94% 29.89 in 10.0 mi East 5.8 mph - N/A   Scattered Clouds
7:53 AM 81.0 °F 87.9 °F 77.0 °F 88% 29.91 in 10.0 mi East 4.6 mph - N/A   Clear
8:53 AM 82.9 °F 90.2 °F 75.0 °F 77% 29.93 in 10.0 mi SSE 5.8 mph - N/A   Clear
9:53 AM 84.0 °F 92.6 °F 75.9 °F 76% 29.94 in 10.0 mi SE 5.8 mph - N/A   Clear
10:53 AM 84.0 °F 91.9 °F 75.0 °F 74% 29.93 in 10.0 mi Variable 5.8 mph - N/A   Partly Cloudy
11:53 AM 84.9 °F 94.1 °F 75.9 °F 74% 29.91 in 10.0 mi South 6.9 mph - N/A   Scattered Clouds
12:53 PM 81.0 °F 86.2 °F 73.9 °F 79% 29.88 in 10.0 mi ENE 4.6 mph - 0.03 in   Mostly Cloudy
1:53 PM 84.0 °F 91.9 °F 75.0 °F 74% 29.86 in 10.0 mi SSE 3.5 mph - N/A   Clear
2:53 PM 84.9 °F 94.1 °F 75.9 °F 74% 29.85 in 10.0 mi SE 10.4 mph - N/A   Scattered Clouds
3:53 PM 82.9 °F 90.8 °F 75.9 °F 79% 29.86 in 10.0 mi SE 9.2 mph - N/A   Scattered Clouds
4:53 PM 82.0 °F 88.6 °F 75.0 °F 79% 29.86 in 10.0 mi SE 6.9 mph - N/A   Clear
5:53 PM 82.0 °F 89.4 °F 75.9 °F 82% 29.88 in 6.0 mi SE 17.3 mph 25.3 mph 0.08 in   Haze
5:56 PM 80.6 °F 88.1 °F 78.8 °F 94% 29.87 in 1.5 mi SE 12.7 mph 25.3 mph 0.22 in Rain Heavy Rain
6:09 PM 80.6 °F 88.1 °F 78.8 °F 94% 29.87 in 3.0 mi SE 6.9 mph - 0.31 in Rain Heavy Rain
6:53 PM 80.1 °F 86.4 °F 78.1 °F 94% 29.88 in 10.0 mi SE 11.5 mph - 0.31 in   Mostly Cloudy
7:53 PM 79.0 °F - 77.0 °F 94% 29.90 in 10.0 mi ESE 9.2 mph - N/A   Mostly Cloudy
8:53 PM 78.1 °F - 73.0 °F 84% 29.90 in 10.0 mi East 3.5 mph - 0.00 in   Overcast
9:53 PM 78.1 °F - 75.0 °F 90% 29.91 in 10.0 mi East 3.5 mph - N/A   Overcast
10:53 PM 78.1 °F - 75.9 °F 93% 29.91 in 10.0 mi Calm Calm - N/A   Scattered Clouds
11:53 PM 78.1 °F - 75.9 °F 93% 29.91 in 10.0 mi Calm Calm - N/A   Partly Cloudy